User: anonymous   Login
Location: Unspecified
(0.0000°N, 0.0000°E)
Time: 03:59:52
(UTC+01:00)
Language:

Meteor 2-8 Rocket - Orbit

View from above orbital plane
View from above orbital plane
View from above satellite
View from above satellite

Ground track
Ground track

The orbit data is extracted from the following two-line orbital elements,

1 13114U 82025B   14331.18219517  .00000029  00000-0  12477-4 0  5658
2 13114 082.5412 225.1483 0013400 248.1445 221.2092 13.84633631651294
Epoch (UTC): 27 November 2014 04:22:21
Eccentricity: 0.0013400
inclination: 82.5412°
perigee height: 937 km
apogee height: 957 km
right ascension of ascending node: 225.1483°
argument of perigee: 248.1445°
revolutions per day: 13.84633631
mean anomaly at epoch: 221.2092°
orbit number at epoch: 65129

The dashed part of the orbit path shows where the satellite is in the earth's shadow,  

DLR